Weather History for KMJQ - October, 2013

Change the Weather History Date:

Saturday, October 26, 2013

  Actual Average Record
Temperature  
Mean Temperature 38 °F -  
Max Temperature 46 °F 51 °F 73 °F (1996)
Min Temperature 30 °F 34 °F 19 °F (2003)
Degree Days  
Heating Degree Days 27    
Moisture  
Dew Point 27 °F    
Average Humidity 62    
Maximum Humidity 80    
Minimum Humidity 40    
Precipitation  
Precipitation 0.00 in - - ()
Sea Level Pressure  
Sea Level Pressure 30.08 in    
Wind  
Wind Speed 14 mph (NW)    
Max Wind Speed 25 mph    
Max Gust Speed 34 mph    
Visibility 10 miles    
Events      
Averages and records for this station are not official NWS values.
T = Trace of Precipitation, MM = Missing Value Source: NWS Daily Summary

Daily Weather History Graph

Daily Weather History Graph

Search for Another Location

Airport or City:

Trip Planner

Search our weather history database for the weather conditions in past years. The results will help you decide how hot, cold, wet, or windy it might be!

Date:

Astronomy

Oct. 26, 2013 Rise Set
Actual Time 7:48 AM CDT 6:18 PM CDT
Civil Twilight 7:18 AM CDT 6:48 PM CDT
Nautical Twilight 6:45 AM CDT 7:21 PM CDT
Astronomical Twilight 6:11 AM CDT 7:55 PM CDT
Moon No Moon Rise 2:06 PM CDT (10/26)
Length of Visible Light 11h 29m
Length of Day
10h 30m
Waning Gibbous, 53% of the Moon is Illuminated
Oct 26
Waning Gibbous
Oct 26
Last Quarter
Nov 3
New
Nov 9
First Quarter
Nov 17
Full

Hourly Weather History & Observations

Time (CDT) Temp. Windchill Dew Point Humidity Pressure Visibility Wind Dir Wind Speed Gust Speed Precip Events Conditions
12:13 AM 46.4 °F 40.7 °F 33.8 °F 62% 29.91 in 10.0 mi WSW 12.7 mph - N/A   Scattered Clouds
12:33 AM 46.4 °F 40.7 °F 35.6 °F 66% 29.91 in 10.0 mi WSW 12.7 mph - N/A   Clear
12:53 AM 44.6 °F 38.4 °F 35.6 °F 71% 29.91 in 10.0 mi West 12.7 mph - N/A   Clear
1:13 AM 44.6 °F 38.4 °F 35.6 °F 71% 29.92 in 10.0 mi West 12.7 mph 16.1 mph N/A   Clear
1:33 AM 44.6 °F 39.7 °F 33.8 °F 66% 29.92 in 10.0 mi WNW 9.2 mph - N/A   Clear
1:53 AM 42.8 °F 38.6 °F 35.6 °F 76% 29.92 in 10.0 mi West 6.9 mph - N/A   Clear
2:13 AM 44.6 °F 39.7 °F 33.8 °F 66% 29.93 in 10.0 mi NW 9.2 mph - N/A   Clear
2:33 AM 46.4 °F 40.1 °F 32.0 °F 57% 29.94 in 10.0 mi NNW 15.0 mph 25.3 mph N/A   Clear
2:54 AM 44.6 °F 36.4 °F 32.0 °F 61% 29.95 in 10.0 mi NNW 20.7 mph 28.8 mph N/A   Clear
3:13 AM 44.6 °F 38.1 °F 32.0 °F 61% 29.96 in 10.0 mi NNW 13.8 mph 20.7 mph N/A   Clear
3:33 AM 42.8 °F 34.3 °F 32.0 °F 66% 29.97 in 10.0 mi NNW 19.6 mph 29.9 mph N/A   Clear
3:53 AM 42.8 °F 34.3 °F 32.0 °F 66% 29.97 in 10.0 mi NNW 19.6 mph 25.3 mph N/A   Clear
4:13 AM 41.0 °F 32.5 °F 32.0 °F 70% 29.98 in 10.0 mi NW 17.3 mph 24.2 mph N/A   Clear
4:33 AM 41.0 °F 33.9 °F 30.2 °F 65% 29.99 in 10.0 mi NW 12.7 mph 20.7 mph N/A   Clear
4:53 AM 39.2 °F 31.6 °F 30.2 °F 70% 30.00 in 10.0 mi NW 12.7 mph - N/A   Clear
5:13 AM 37.4 °F 28.2 °F 28.4 °F 70% 30.00 in 10.0 mi NW 16.1 mph 20.7 mph N/A   Clear
5:33 AM 37.4 °F 28.9 °F 28.4 °F 70% 30.02 in 10.0 mi NW 13.8 mph 20.7 mph N/A   Clear
5:53 AM 35.6 °F 25.9 °F 28.4 °F 75% 30.04 in 10.0 mi NW 16.1 mph 21.9 mph N/A   Clear
6:13 AM 35.6 °F 26.2 °F 28.4 °F 75% 30.04 in 10.0 mi NW 15.0 mph 25.3 mph N/A   Clear
6:33 AM 35.6 °F 25.9 °F 28.4 °F 75% 30.05 in 10.0 mi NW 16.1 mph 21.9 mph N/A   Clear
6:53 AM 35.6 °F 25.2 °F 28.4 °F 75% 30.06 in 10.0 mi NW 18.4 mph 27.6 mph N/A   Clear
7:13 AM 35.6 °F 25.5 °F 28.4 °F 75% 30.07 in 10.0 mi NNW 17.3 mph 24.2 mph N/A   Clear
7:33 AM 35.6 °F 25.5 °F 28.4 °F 75% 30.07 in 10.0 mi NNW 17.3 mph 21.9 mph N/A   Clear
7:53 AM 35.6 °F 25.5 °F 26.6 °F 70% 30.08 in 10.0 mi NNW 17.3 mph 25.3 mph N/A   Clear
8:13 AM 35.6 °F 25.5 °F 28.4 °F 75% 30.09 in 10.0 mi NNW 17.3 mph 23.0 mph N/A   Clear
8:33 AM 35.6 °F 25.5 °F 28.4 °F 75% 30.10 in 10.0 mi NW 17.3 mph - N/A   Clear
8:53 AM 35.6 °F 26.2 °F 28.4 °F 75% 30.10 in 10.0 mi NW 15.0 mph 20.7 mph N/A   Clear
9:13 AM 37.4 °F 28.5 °F 28.4 °F 70% 30.12 in 10.0 mi NW 15.0 mph - N/A   Clear
9:33 AM 37.4 °F 28.2 °F 28.4 °F 70% 30.12 in 10.0 mi NW 16.1 mph 24.2 mph N/A   Clear
9:53 AM 39.2 °F 29.3 °F 28.4 °F 65% 30.13 in 10.0 mi NW 20.7 mph 24.2 mph N/A   Clear
10:13 AM 41.0 °F 30.9 °F 28.4 °F 61% 30.13 in 10.0 mi NW 24.2 mph 32.2 mph N/A   Clear
10:33 AM 41.0 °F 30.9 °F 26.6 °F 57% 30.13 in 10.0 mi NNW 24.2 mph 29.9 mph N/A   Clear
10:53 AM 42.8 °F 33.5 °F 26.6 °F 53% 30.13 in 10.0 mi NNW 23.0 mph 32.2 mph N/A   Clear
11:13 AM 42.8 °F 34.0 °F 26.6 °F 53% 30.13 in 10.0 mi NNW 20.7 mph 27.6 mph N/A   Clear
11:34 AM 42.8 °F 33.5 °F 26.6 °F 53% 30.14 in 10.0 mi NNW 23.0 mph 27.6 mph N/A   Clear
11:53 AM 42.8 °F 33.5 °F 24.8 °F 49% 30.15 in 10.0 mi NNW 23.0 mph 34.5 mph N/A   Clear
12:13 PM 44.6 °F 36.9 °F 24.8 °F 46% 30.16 in 10.0 mi NNW 18.4 mph 29.9 mph N/A   Clear
12:34 PM 44.6 °F 35.5 °F 24.8 °F 46% 30.15 in 10.0 mi NW 25.3 mph 34.5 mph N/A   Clear
12:53 PM 44.6 °F 36.1 °F 26.6 °F 49% 30.15 in 10.0 mi NNW 21.9 mph 31.1 mph N/A   Clear
1:13 PM 44.6 °F 35.9 °F 24.8 °F 46% 30.15 in 10.0 mi WNW 23.0 mph 29.9 mph N/A   Clear
1:33 PM 46.4 °F 39.0 °F 24.8 °F 43% 30.15 in 10.0 mi NW 19.6 mph 26.5 mph N/A   Clear
1:53 PM 46.4 °F 39.0 °F 24.8 °F 43% 30.15 in 10.0 mi WNW 19.6 mph 28.8 mph N/A   Clear
2:13 PM 46.4 °F 39.0 °F 23.0 °F 40% 30.14 in 10.0 mi NW 19.6 mph 25.3 mph N/A   Clear
2:33 PM 46.4 °F 38.7 °F 23.0 °F 40% 30.14 in 10.0 mi NW 20.7 mph 28.8 mph N/A   Clear
2:54 PM 46.4 °F 39.2 °F 23.0 °F 40% 30.14 in 10.0 mi NW 18.4 mph 26.5 mph N/A   Clear
3:13 PM 46.4 °F 39.0 °F 23.0 °F 40% 30.13 in 10.0 mi NW 19.6 mph 29.9 mph N/A   Clear
3:33 PM 46.4 °F 38.7 °F 23.0 °F 40% 30.14 in 10.0 mi NW 20.7 mph 27.6 mph N/A   Clear
3:54 PM 46.4 °F 39.5 °F 23.0 °F 40% 30.14 in 10.0 mi NW 17.3 mph 23.0 mph N/A   Clear
4:13 PM 46.4 °F 39.2 °F 23.0 °F 40% 30.14 in 10.0 mi NW 18.4 mph 25.3 mph N/A   Clear
4:34 PM 46.4 °F 39.5 °F 23.0 °F 40% 30.14 in 10.0 mi NW 17.3 mph - N/A   Clear
4:53 PM 46.4 °F 40.4 °F 23.0 °F 40% 30.14 in 10.0 mi WNW 13.8 mph 19.6 mph N/A   Clear
5:13 PM 44.6 °F 37.8 °F 23.0 °F 43% 30.13 in 10.0 mi NW 15.0 mph 26.5 mph N/A   Clear
5:34 PM 44.6 °F 38.1 °F 23.0 °F 43% 30.13 in 10.0 mi NW 13.8 mph - N/A   Clear
5:53 PM 42.8 °F 37.0 °F 24.8 °F 49% 30.12 in 10.0 mi NNW 10.4 mph 18.4 mph N/A   Clear
6:13 PM 42.8 °F 38.6 °F 24.8 °F 49% 30.12 in 10.0 mi NNW 6.9 mph - N/A   Clear
6:34 PM 39.2 °F 33.6 °F 26.6 °F 61% 30.12 in 10.0 mi NNW 8.1 mph - N/A   Clear
6:53 PM 37.4 °F 32.8 °F 26.6 °F 65% 30.12 in 10.0 mi NNW 5.8 mph - N/A   Clear
7:13 PM 35.6 °F 30.7 °F 24.8 °F 65% 30.13 in 10.0 mi NW 5.8 mph - N/A   Clear
7:34 PM 33.8 °F - 24.8 °F 70% 30.12 in 10.0 mi Calm Calm - N/A   Clear
7:53 PM 35.6 °F - 26.6 °F 70% 30.12 in 10.0 mi Calm Calm - N/A   Clear
8:13 PM 33.8 °F 30.8 °F 26.6 °F 75% 30.12 in 10.0 mi WSW 3.5 mph - N/A   Clear
8:34 PM 32.0 °F 28.7 °F 26.6 °F 80% 30.12 in 10.0 mi WSW 3.5 mph - N/A   Clear
8:53 PM 33.8 °F 30.8 °F 26.6 °F 75% 30.12 in 10.0 mi West 3.5 mph - N/A   Clear
9:13 PM 32.0 °F 27.5 °F 26.6 °F 80% 30.12 in 10.0 mi West 4.6 mph - N/A   Clear
9:34 PM 32.0 °F - 26.6 °F 80% 30.12 in 10.0 mi Calm Calm - N/A   Clear
9:53 PM 33.8 °F - 26.6 °F 75% 30.10 in 10.0 mi Calm Calm - N/A   Clear
10:13 PM 32.0 °F 26.4 °F 24.8 °F 75% 30.09 in 10.0 mi SSW 5.8 mph - N/A   Clear
10:34 PM 32.0 °F - 24.8 °F 75% 30.10 in 10.0 mi Calm Calm - N/A   Clear
10:53 PM 30.2 °F - 24.8 °F 80% 30.09 in 10.0 mi Calm Calm - N/A   Clear
11:13 PM 32.0 °F 26.4 °F 24.8 °F 75% 30.08 in 10.0 mi South 5.8 mph - N/A   Clear
11:33 PM 30.2 °F 26.7 °F 23.0 °F 75% 30.08 in 10.0 mi SSW 3.5 mph - N/A   Clear
11:53 PM 30.2 °F 25.4 °F 23.0 °F 75% 30.07 in 10.0 mi SW 4.6 mph - N/A   Clear